"Pseudo-MPEC" for A10RftE

Created 2022 Dec 3 16:22:03 UT using Find_Orb

Click here for an explanation of pseudo-MPECs

 
 Astrometry: 
     A10RftE* C2022 11 269vw$x,7rQZLlcAstrometryMRsBredacted;@tccf\2D'V+C,x?]W68
     A10RftE  C2022 11 26#Cnjt(fEDrr@lm]V3c8F.sVm=cF6#.DqclickxhereSo_xmWp3JcW68
     A10RftE  C2022 11 26pw4rwvESCpiSql;o=:3p/forLn^?i.(9hYM:explanation0#9GVW68

Station data:
(W68) ATLAS Chile, Rio Hurtado  (S30.471010 W70.764980)  Chile.

Orbital elements:  A10RftE
   Perihelion 2023 Apr 13.31442 +/- 260 TT =  7:32:46 (JD 2460047.81442)
Epoch 2022 Nov 26.0 TT = JDT 2459909.5   Earth MOID: 0.3979   Ma: 0.0782
M 325.82597903 +/- 60               (J2000 ecliptic)          AutoNEOCP
n   0.24707489 +/- 0.203            Peri.   79.79245 +/- 90
a   2.51526438 +/- 1.38             Node    66.96858 +/- 34
e   0.4900984 +/- 0.26              Incl.   14.01768 +/- 32
P   3.99                   H 18.0   G  0.15   U 11.7  SR
q 1.28253716 +/- 0.812    Q 3.74799160 +/- 18.1
From 3 observations 2022 Nov. 26 (77.8 sec); mean residual 0".38
Residuals in arcseconds: 
221126 W68  .20+  .29-    221126 W68  .42-  .66+    221126 W68  .27+  .28-    

Ephemerides (geocentric):
Date (UTC) HH   RA             Dec           delta  r     elong  mag " sig PA
---- --------  ------------   ------------  ------ ------ -----  --- --------
2022 12 03 16  03 27 25.117   +16 41 30.96  .85080 1.8151 162.4 19.6 853'  14
2022 12 03 17  03 27 21.142   +16 41 49.54  .85069 1.8149 162.4 19.6 908'   7
2022 12 03 18  03 27 17.167   +16 42 08.13  .85058 1.8146 162.3 19.6 939'   3
2022 12 03 19  03 27 13.194   +16 42 26.73  .85046 1.8144 162.3 19.6 959' 179
2022 12 03 20  03 27 09.222   +16 42 45.35  .85035 1.8141 162.2 19.6 975' 177
2022 12 03 21  03 27 05.250   +16 43 03.98  .85024 1.8139 162.2 19.6 986' 176
2022 12 03 22  03 27 01.280   +16 43 22.62  .85013 1.8136 162.1 19.6 995' 175
2022 12 03 23  03 26 57.310   +16 43 41.27  .85002 1.8134 162.0 19.6  17d 174
2022 12 04 00  03 26 53.341   +16 43 59.93  .84991 1.8131 162.0 19.6  17d 173
2022 12 04 01  03 26 49.373   +16 44 18.61  .84980 1.8129 161.9 19.6  17d 173
2022 12 04 02  03 26 45.407   +16 44 37.29  .84969 1.8126 161.9 19.6  17d 172
2022 12 04 03  03 26 41.441   +16 44 55.99  .84958 1.8124 161.8 19.6  17d 172
2022 12 04 04  03 26 37.476   +16 45 14.70  .84947 1.8121 161.8 19.6  17d 172
2022 12 04 05  03 26 33.512   +16 45 33.43  .84936 1.8119 161.7 19.6  17d 171
2022 12 04 06  03 26 29.549   +16 45 52.16  .84925 1.8116 161.7 19.6  17d 171
2022 12 04 07  03 26 25.587   +16 46 10.91  .84914 1.8114 161.6 19.6  17d 171
2022 12 04 08  03 26 21.626   +16 46 29.67  .84904 1.8111 161.6 19.6  17d 171
2022 12 04 09  03 26 17.667   +16 46 48.44  .84893 1.8109 161.5 19.6  17d 171
2022 12 04 10  03 26 13.708   +16 47 07.22  .84882 1.8106 161.4 19.6  17d 171
2022 12 04 11  03 26 09.750   +16 47 26.01  .84872 1.8103 161.4 19.6  17d 170
2022 12 04 12  03 26 05.793   +16 47 44.82  .84861 1.8101 161.3 19.6  17d 170
2022 12 04 13  03 26 01.838   +16 48 03.63  .84850 1.8098 161.3 19.6  17d 170
2022 12 04 14  03 25 57.883   +16 48 22.46  .84840 1.8096 161.2 19.6  17d 170
2022 12 04 15  03 25 53.930   +16 48 41.30  .84829 1.8093 161.2 19.6  17d 170
2022 12 04 16  03 25 49.978   +16 49 00.15  .84819 1.8091 161.1 19.6  17d 170
2022 12 04 17  03 25 46.026   +16 49 19.02  .84809 1.8088 161.1 19.6  17d 170
2022 12 04 18  03 25 42.076   +16 49 37.89  .84798 1.8086 161.0 19.6  17d 170
2022 12 04 19  03 25 38.127   +16 49 56.78  .84788 1.8083 160.9 19.6  17d 170
2022 12 04 20  03 25 34.180   +16 50 15.68  .84778 1.8081 160.9 19.6  17d 170
2022 12 04 21  03 25 30.233   +16 50 34.59  .84768 1.8078 160.8 19.6  18d 170
2022 12 04 22  03 25 26.288   +16 50 53.51  .84757 1.8076 160.8 19.6  18d 170
2022 12 04 23  03 25 22.343   +16 51 12.45  .84747 1.8073 160.7 19.6  18d 170
2022 12 05 00  03 25 18.400   +16 51 31.39  .84737 1.8071 160.7 19.6  18d 170
2022 12 05 01  03 25 14.458   +16 51 50.35  .84727 1.8068 160.6 19.6  18d 170
2022 12 05 02  03 25 10.518   +16 52 09.32  .84717 1.8066 160.6 19.6  18d 170
2022 12 05 03  03 25 06.578   +16 52 28.30  .84707 1.8063 160.5 19.6  18d 170
2022 12 05 04  03 25 02.640   +16 52 47.30  .84697 1.8061 160.5 19.6  18d 169
2022 12 05 05  03 24 58.703   +16 53 06.30  .84687 1.8058 160.4 19.6  18d 169
2022 12 05 06  03 24 54.767   +16 53 25.32  .84678 1.8056 160.3 19.6  18d 169
2022 12 05 07  03 24 50.833   +16 53 44.35  .84668 1.8053 160.3 19.6  18d 169
2022 12 05 08  03 24 46.900   +16 54 03.39  .84658 1.8050 160.2 19.6  18d 169
2022 12 05 09  03 24 42.968   +16 54 22.44  .84648 1.8048 160.2 19.6  18d 169
2022 12 05 10  03 24 39.037   +16 54 41.50  .84639 1.8045 160.1 19.6  18d 169
2022 12 05 11  03 24 35.108   +16 55 00.58  .84629 1.8043 160.1 19.6  18d 169
2022 12 05 12  03 24 31.180   +16 55 19.66  .84619 1.8040 160.0 19.6  18d 169
2022 12 05 13  03 24 27.254   +16 55 38.76  .84610 1.8038 160.0 19.6  18d 169
2022 12 05 14  03 24 23.328   +16 55 57.87  .84600 1.8035 159.9 19.6  18d 169
2022 12 05 15  03 24 19.404   +16 56 16.99  .84591 1.8033 159.8 19.6  18d 169